Weather History for MMMD - August, 2013

Change the Weather History Date:

Thursday, August 22, 2013

  Actual Average Record
Temperature  
Mean Temperature 86 °F -  
Max Temperature 95 °F 92 °F 100 °F (2008)
Min Temperature 77 °F 73 °F 69 °F (1997)
Cooling Degree Days 21    
Growing Degree Days 36 (Base 50)    
Moisture  
Dew Point 74 °F    
Average Humidity 75    
Maximum Humidity 94    
Minimum Humidity 52    
Precipitation  
Precipitation 0.00 in - - ()
Sea Level Pressure  
Sea Level Pressure 29.92 in    
Wind  
Wind Speed 6 mph ()    
Max Wind Speed 12 mph    
Max Gust Speed -    
Visibility 6.4 miles    
Events      
Averages and records for this station are not official NWS values.
T = Trace of Precipitation, MM = Missing Value Source: Averaged Metar Reports

Daily Weather History Graph

Daily Weather History Graph

Search for Another Location

Airport or City:

Trip Planner

Search our weather history database for the weather conditions in past years. The results will help you decide how hot, cold, wet, or windy it might be!

Date:

Astronomy

Aug. 22, 2013 Rise Set
Actual Time 6:39 AM CDT 7:22 PM CDT
Civil Twilight 6:16 AM CDT 7:45 PM CDT
Nautical Twilight 5:50 AM CDT 8:12 PM CDT
Astronomical Twilight 5:22 AM CDT 8:39 PM CDT
Moon 8:32 PM CDT (8/22) 8:07 AM CDT (8/22)
Length of Visible Light 13h 28m
Length of Day
12h 43m
Waning Gibbous, 96% of the Moon is Illuminated
Aug 22
Waning Gibbous
Aug 28
Last Quarter
Sep 5
New
Sep 12
First Quarter
Sep 19
Full

Hourly Weather History & Observations

Time (CDT) Temp. Heat Index Dew Point Humidity Pressure Visibility Wind Dir Wind Speed Gust Speed Precip Events Conditions
12:46 AM 78.8 °F - 75.2 °F 89% 29.97 in 7.0 mi NE 8.1 mph - N/A   Scattered Clouds
1:45 AM 78.8 °F - 75.2 °F 89% 29.95 in 7.0 mi NE 6.9 mph - N/A   Scattered Clouds
2:45 AM 77.0 °F - 75.2 °F 94% 29.93 in 7.0 mi ENE 5.8 mph - N/A   Scattered Clouds
3:47 AM 77.0 °F - 75.2 °F 94% 29.95 in 7.0 mi ENE 10.4 mph - N/A   Scattered Clouds
4:45 AM 78.8 °F - 75.2 °F 89% 29.94 in 7.0 mi East 4.6 mph - N/A   Mostly Cloudy
5:45 AM 78.8 °F - 75.2 °F 89% 29.94 in 6.0 mi East 3.5 mph - N/A   Overcast
6:09 AM 78.8 °F - 75.2 °F 89% 29.94 in 4.0 mi ENE 5.8 mph - N/A   Overcast
6:44 AM 78.8 °F - 75.2 °F 89% 29.92 in 5.0 mi ENE 5.8 mph - N/A   Mostly Cloudy
7:50 AM 78.8 °F - 75.2 °F 89% 29.95 in 5.0 mi Calm Calm - N/A   Mostly Cloudy
8:46 AM 80.6 °F 86.2 °F 75.2 °F 84% 29.96 in 6.0 mi East 6.9 mph - N/A   Mostly Cloudy
9:45 AM 86.0 °F 95.1 °F 75.2 °F 70% 29.94 in 7.0 mi ESE 6.9 mph - N/A   Mostly Cloudy
9:50 AM 87 °F - 79 °F 71% 29.97 in 6 mi ESE 2.2 mph - -   Partly Cloudy
10:45 AM 87.8 °F 97.6 °F 75.2 °F 66% 29.96 in 7.0 mi SSE 4.6 mph - N/A   Mostly Cloudy
11:47 AM 89.6 °F 98.2 °F 73.4 °F 59% 29.95 in 7.0 mi East 5.8 mph - N/A   Mostly Cloudy
12:48 PM 89.6 °F 96.2 °F 71.6 °F 55% 29.94 in 7.0 mi East 6.9 mph - N/A   Mostly Cloudy
12:50 PM 91 °F - 79 °F 61% 29.93 in 6 mi ESE 4.5 mph - -   Mostly Cloudy
1:44 PM 91.4 °F 98.4 °F 71.6 °F 52% 29.91 in 7.0 mi East 4.6 mph - N/A   Mostly Cloudy
2:48 PM 84.2 °F 88.4 °F 69.8 °F 62% 29.88 in 7.0 mi North 9.2 mph - N/A   Mostly Cloudy
3:49 PM 86.0 °F 93.4 °F 73.4 °F 66% 29.90 in 7.0 mi North 5.8 mph - N/A   Mostly Cloudy
3:50 PM 86 °F - 79 °F 74% 29.88 in 6 mi NNE 6.7 mph - -   Scattered Clouds
4:42 PM 86.0 °F 93.4 °F 73.4 °F 66% 29.84 in 7.0 mi North 6.9 mph - N/A   Mostly Cloudy
5:50 PM 86.0 °F 90.4 °F 69.8 °F 58% 29.84 in 7.0 mi North 11.5 mph - N/A   Mostly Cloudy
6:43 PM 84.2 °F 89.6 °F 71.6 °F 66% 29.87 in 7.0 mi NNE 5.8 mph - N/A   Mostly Cloudy
6:50 PM 85 °F - 78 °F 75% 29.87 in 6 mi NNE 6.7 mph - -   Scattered Clouds
7:43 PM 82.4 °F 87.2 °F 71.6 °F 70% 29.86 in 7.0 mi NE 9.2 mph - N/A   Scattered Clouds
8:45 PM 80.6 °F 84.6 °F 71.6 °F 74% 29.89 in 7.0 mi NE 6.9 mph - N/A   Clear
9:44 PM 80.6 °F 85.4 °F 73.4 °F 79% 29.88 in 7.0 mi NE 5.8 mph - N/A   Clear
9:50 PM 81 °F - 74 °F 75% 29.93 in 3 mi ENE 6.7 mph - -   Scattered Clouds
10:44 PM 80.6 °F 85.4 °F 73.4 °F 79% 29.91 in 7.0 mi ENE 8.1 mph - N/A   Clear
11:42 PM 78.8 °F - 73.4 °F 83% 29.91 in 7.0 mi ENE 5.8 mph - N/A   Clear